Вернуться в каталог

COSMOS 2251 DEB

АктивенVLEO
NORAD 38208·DEBRIS·🇷🇺 Russia

Запущен Jun 16, 1993 с Plesetsk Cosmodrome

Loading…

Ближайшие Пролёты (ближайшие 24 часа)

TLE

СвежийSource: Space-Track

Эпоха: Sep 14, 2026, 05:19 UTC

1 38208U 93036BSY 26257.22193796  .00012570  00000-0  11734-2 0  9996
2 38208  73.9982 246.8592 0009860 276.0155  98.0226 14.94195748752616

Отслеживайте COSMOS 2251 DEB в реальном времени с AllMySat

Download on the App Store